GW4318 Weather Reports


time (UTC)temp
C
wind
direction
speed
KPH
gust
KPH
rain 1hr
cm
rain 24hr
cm
rain mn
cm
humidity
%
barometer
mb
20260507182518 16 243 6.4 12.9 0.00 0.43 0.10 38 1006.3
20260507181521 16 260 6.4 12.9 0.00 0.46 0.10 38 1006.5
20260507180520 16 256 6.4 14.5 0.00 0.46 0.10 38 1006.6
20260507175517 17 269 4.8 12.9 0.00 0.46 0.10 40 1006.6
20260507174517 16 269 4.8 14.5 0.00 0.46 0.10 44 1006.5
20260507173519 16 279 6.4 12.9 0.00 0.46 0.10 45 1006.5
20260507172540 16 304 4.8 14.5 0.00 0.46 0.10 46 1006.5
20260507171517 16 256 4.8 12.9 0.00 0.46 0.10 45 1006.7
20260507170519 16 269 4.8 11.3 0.00 0.46 0.10 46 1006.9
20260507165538 16 293 4.8 12.9 0.00 0.46 0.10 48 1007.0
20260507164519 16 275 6.4 14.5 0.00 0.46 0.10 48 1007.1
20260507163521 16 281 4.8 14.5 0.00 0.46 0.10 50 1007.1
20260507162518 16 304 4.8 9.7 0.00 0.46 0.10 52 1007.2
20260507161539 16 271 4.8 11.3 0.00 0.46 0.10 53 1007.4
20260507160518 16 294 4.8 9.7 0.00 0.46 0.10 57 1007.4
20260507155518 15 284 4.8 12.9 0.00 0.46 0.10 58 1007.5
20260507154539 15 282 6.4 12.9 0.00 0.46 0.10 59 1007.5
20260507153521 15 266 4.8 12.9 0.00 0.46 0.10 59 1007.4
20260507152540 15 302 4.8 9.7 0.00 0.46 0.10 64 1007.6
20260507151538 14 257 4.8 14.5 0.00 0.46 0.10 63 1007.6
20260507150519 14 288 3.2 12.9 0.00 0.46 0.10 65 1007.8
20260507145519 13 301 4.8 11.3 0.00 0.46 0.10 67 1007.9
20260507144519 13 278 4.8 12.9 0.00 0.46 0.10 66 1008.1
20260507143517 13 259 3.2 11.3 0.00 0.46 0.10 66 1008.1
20260507142517 13 317 1.6 4.8 0.00 0.46 0.10 67 1008.1
20260507141521 13 344 3.2 6.4 0.00 0.46 0.10 67 1008.2
20260507140519 13 267 1.6 6.4 0.00 0.46 0.10 66 1008.2
20260507135517 13 248 3.2 8.0 0.00 0.46 0.10 69 1008.2
20260507134517 13 259 3.2 6.4 0.00 0.46 0.10 70 1008.1
20260507133520 13 348 1.6 4.8 0.00 0.46 0.10 68 1008.1
20260507132520 12 334 3.2 6.4 0.00 0.46 0.10 72 1008.2
20260507131517 12 266 3.2 8.0 0.00 0.46 0.10 76 1008.3
20260507130518 11 325 3.2 6.4 0.00 0.46 0.10 78 1008.2
20260507125518 11 319 3.2 6.4 0.00 0.46 0.10 81 1008.2
20260507124520 11 300 3.2 6.4 0.00 0.46 0.10 82 1008.2
20260507123521 10 304 3.2 6.4 0.00 0.46 0.10 86 1008.1
20260507122521 10 338 3.2 4.8 0.00 0.46 0.10 91 1008.1
20260507121521 10 345 1.6 3.2 0.00 0.46 0.10 92 1008.1
20260507120521 9 300 0.0 1.6 0.00 0.46 0.10 95 1008.1
20260507115521 9 312 1.6 4.8 0.00 0.46 0.10 96 1008.2
20260507114542 9 318 1.6 3.2 0.00 0.46 0.10 97 1008.2
20260507113522 9 349 1.6 3.2 0.00 0.46 0.10 98 1008.1
20260507112522 8 310 1.6 3.2 0.00 0.46 0.10 99 1008.3
20260507111542 8 295 1.6 3.2 0.00 0.46 0.10 99 1008.3
20260507110522 8 71 0.0 1.6 0.00 0.46 0.10 99 1007.9
20260507105522 8 52 1.6 3.2 0.00 0.46 0.10 99 1008.2
20260507104523 8 66 1.6 1.6 0.00 0.46 0.10 99 1008.2
20260507103522 8 327 0.0 1.6 0.00 0.46 0.10 99 1008.0
20260507102525 8 103 1.6 3.2 0.03 0.46 0.10 99 1007.6
20260507101543 8 331 0.0 3.2 0.03 0.46 0.10 99 1007.5
20260507100523 8 69 0.0 3.2 0.03 0.46 0.10 99 1007.4
20260507095526 8 284 1.6 3.2 0.03 0.46 0.08 98 1007.4
20260507094523 8 77 1.6 3.2 0.03 0.46 0.08 98 1007.3
20260507093523 8 22 1.6 3.2 0.03 0.46 0.08 98 1007.4
20260507092543 9 311 1.6 3.2 0.03 0.46 0.08 98 1007.7
20260507091547 9 352 1.6 3.2 0.00 0.43 0.08 98 1007.6
20260507090527 9 312 1.6 3.2 0.00 0.43 0.08 98 1007.8
20260507085523 9 290 1.6 4.8 0.00 0.43 0.05 98 1007.9
20260507084524 9 303 1.6 3.2 0.00 0.43 0.05 98 1007.8
20260507083524 10 304 0.0 3.2 0.05 0.43 0.05 97 1007.6
20260507082523 10 278 3.2 4.8 0.05 0.43 0.05 97 1007.6
20260507081546 10 281 1.6 6.4 0.05 0.43 0.05 97 1007.2
20260507080528 10 272 1.6 3.2 0.05 0.43 0.05 97 1007.3
20260507075525 10 302 3.2 4.8 0.05 0.43 0.05 96 1007.6
20260507074526 11 290 3.2 6.4 0.05 0.43 0.05 95 1007.3
20260507073546 11 302 1.6 3.2 0.03 0.38 0.03 93 1007.3
20260507072525 11 289 3.2 6.4 0.00 0.38 0.00 96 1006.9
20260507071525 11 303 1.6 3.2 0.00 0.36 0.00 96 1006.7
20260507070606 11 269 3.2 6.4 0.00 0.36 0.00 96 1006.6
20260507065527 12 256 1.6 3.2 0.00 0.36 0.00 97 1006.6
20260507064527 12 274 1.6 3.2 0.00 0.36 0.00 97 1006.5
20260507063527 12 280 1.6 3.2 0.00 0.36 0.00 98 1006.6
20260507062526 12 259 1.6 3.2 0.00 0.36 0.00 98 1006.7
20260507061526 12 274 3.2 4.8 0.00 0.36 0.00 97 1006.6
20260507060526 12 272 1.6 3.2 0.00 0.36 0.00 97 1006.6
20260507055526 12 218 1.6 4.8 0.00 0.36 0.00 98 1006.6
20260507054526 12 270 1.6 3.2 0.00 0.36 0.00 98 1006.8
20260507053528 12 288 1.6 3.2 0.00 0.36 0.00 98 1006.9
20260507052547 13 253 0.0 4.8 0.00 0.36 0.00 98 1006.9
20260507051527 13 304 1.6 3.2 0.00 0.36 0.00 98 1006.8
20260507050527 13 275 3.2 4.8 0.00 0.36 0.00 98 1006.6
20260507045527 13 285 1.6 3.2 0.00 0.36 0.00 98 1006.9
20260507044529 13 270 3.2 4.8 0.00 0.36 0.00 99 1007.0
20260507043529 14 298 3.2 4.8 0.00 0.36 0.00 99 1006.8
20260507042527 14 265 3.2 4.8 0.00 0.36 0.00 99 1006.8
20260507041528 14 270 3.2 4.8 0.00 0.36 0.00 99 1006.8
20260507040527 14 278 4.8 8.0 0.00 0.36 0.00 100 1006.8
20260507035528 15 251 1.6 4.8 0.00 0.36 0.36 99 1007.0
20260507034528 15 261 3.2 6.4 0.00 0.36 0.36 99 1006.7
20260507033529 15 255 3.2 4.8 0.00 0.36 0.36 99 1006.6
20260507032530 15 233 1.6 3.2 0.00 0.36 0.36 100 1006.6
20260507031548 15 265 3.2 6.4 0.00 0.36 0.36 99 1006.3
20260507030528 15 236 3.2 3.2 0.00 0.36 0.36 99 1006.2
20260507025548 15 197 3.2 4.8 0.00 0.36 0.36 99 1005.9
20260507024529 15 208 1.6 4.8 0.00 0.36 0.36 99 1005.9
20260507023529 15 209 3.2 4.8 0.00 0.36 0.36 99 1006.0
20260507022549 15 171 3.2 6.4 0.00 0.36 0.36 99 1006.1
20260507021520 15 244 3.2 8.0 0.00 0.36 0.36 99 1006.0
20260507020532 15 251 3.2 6.4 0.00 0.36 0.36 99 1006.0
20260507015520 15 259 3.2 9.7 0.00 0.36 0.36 99 1006.0
20260507014528 15 190 3.2 6.4 0.00 0.36 0.36 99 1006.0
20260507013529 15 155 3.2 4.8 0.00 0.36 0.36 99 1006.0
20260507012550 15 140 3.2 6.4 0.00 0.36 0.36 99 1006.1
20260507011524 15 105 3.2 9.7 0.00 0.36 0.36 99 1006.2
20260507010521 15 237 3.2 8.0 0.00 0.36 0.36 99 1006.2
20260507005521 15 252 3.2 8.0 0.00 0.36 0.36 99 1006.2
20260507004550 15 204 3.2 6.4 0.00 0.36 0.36 99 1006.3
20260507003521 15 114 3.2 8.0 0.00 0.36 0.36 99 1006.3
20260507002518 15 127 3.2 11.3 0.00 0.36 0.36 100 1006.2
20260507001521 15 164 3.2 6.4 0.03 0.36 0.36 100 1006.3
20260507000520 15 228 1.6 6.4 0.10 0.36 0.36 99 1006.1
20260506235519 15 141 3.2 11.3 0.10 0.36 0.36 100 1006.0
20260506234519 15 127 3.2 12.9 0.10 0.36 0.36 100 1005.9
20260506233518 15 150 3.2 12.9 0.10 0.36 0.36 100 1005.9
20260506232519 15 172 1.6 6.4 0.10 0.36 0.36 99 1005.9
20260506231520 15 147 3.2 6.4 0.10 0.36 0.36 99 1005.9
20260506230519 15 168 3.2 9.7 0.03 0.28 0.28 99 1006.0
20260506225516 15 186 3.2 8.0 0.00 0.25 0.25 99 1006.0
20260506224537 15 241 3.2 4.8 0.00 0.25 0.25 99 1006.1
20260506223519 15 168 3.2 8.0 0.00 0.25 0.25 98 1006.1
20260506222522 15 138 3.2 11.3 0.00 0.25 0.25 98 1006.1
20260506221517 15 143 4.8 14.5 0.00 0.25 0.25 98 1006.2
20260506220538 15 137 3.2 14.5 0.00 0.25 0.25 98 1006.4
20260506215521 15 146 3.2 8.0 0.00 0.25 0.25 97 1006.3
20260506214519 15 189 3.2 6.4 0.00 0.25 0.25 96 1006.5
20260506213517 15 251 4.8 16.1 0.03 0.25 0.25 96 1006.6
20260506212538 15 254 3.2 12.9 0.03 0.25 0.25 96 1006.7
20260506211518 15 274 3.2 11.3 0.05 0.25 0.25 96 1006.8
20260506210518 15 162 3.2 8.0 0.05 0.25 0.25 96 1006.8
20260506205521 15 282 4.8 12.9 0.05 0.25 0.25 95 1006.8
20260506204518 16 99 1.6 8.0 0.05 0.25 0.25 95 1007.0
20260506203518 16 235 3.2 8.0 0.08 0.25 0.25 95 1007.2
20260506202538 16 264 4.8 11.3 0.10 0.23 0.23 95 1007.1
20260506201518 16 129 3.2 9.7 0.10 0.20 0.20 95 1007.1
20260506200518 16 248 3.2 12.9 0.10 0.20 0.20 94 1007.1
20260506195518 16 234 4.8 12.9 0.13 0.20 0.20 93 1007.1
20260506194519 16 207 3.2 11.3 0.15 0.20 0.20 91 1007.2
20260506193519 17 273 6.4 14.5 0.13 0.15 0.15 88 1007.2
20260506192537 17 134 4.8 16.1 0.13 0.13 0.13 87 1007.3
20260506191519 17 230 1.6 11.3 0.13 0.13 0.13 85 1007.2
20260506190520 18 248 3.2 9.7 0.10 0.10 0.10 81 1007.3
20260506185540 19 164 4.8 14.5 0.08 0.08 0.08 76 1007.4
20260506184537 20 258 6.4 12.9 0.05 0.05 0.05 73 1007.5
20260506183517 20 258 4.8 14.5 0.05 0.05 0.05 70 1007.5